Погода в Штыкове

Россия / Приморский край     43°23′02″N   132°22′10″E
темп.,
°C
ветер,
м/с
пор.,
м/с
влажн.,
%
обл.,
%
осадки,
мм/ч
давл.,
гПа
погр.,
м
29 ноября, пн
пн2901:00−3вюв11935 0.0 102512
04:00−3вюв119453 0.0 102412
07:00−1юв1193100 0.0 102319
10:00+1юв118915 0.0 102335
13:00+5зюз167399 0.0 1021382
16:00+3с4885100 0.0 1022449
19:00−1ссв378899 0.0 1024241
22:00−3с25896 0.0 1025157
30 ноября, вт
вт3001:00−3ссз2388100 0.0 102499
04:00−3ссз2385100 0.0 1022130
07:00−3ссз2382100 0.0 1019208
10:00−3ссз2385100 0.2 1016274
13:00−4ссз3695100 4.8 1011301
16:00−5ссз4995100 10.8 1005355
19:00−7с71594100 12.0 1001592
22:00−8с101990100 23.3 1000857
1 декабря, ср
ср101:00−8с91890100 1.4 10001077
04:00−9ссз91891100 3.6 10011244
07:00−9ссз71891100 2.3 10031430
10:00−9сз71690100 3.7 10051390
13:00−8сз8157999 0.3 10051346
16:00−9сз71576100 0.3 10071288
19:00−11сз61573100 0.0 1009940
22:00−12сз515733 0.0 1011883
2 декабря, чт
чт201:00−11сз515670 0.0 1012898
04:00−12зсз310745 0.0 1013369
07:00−19всв21945 0.0 101410
10:00−13вюв128616 0.0 101364
13:00−6ююв3682100 0.0 1010351
16:00−2ю31179100 0.0 1006730
19:00−4юв2193100 0.0 100529
22:00−4вюв1195100 0.0 100512
3 декабря, пт
пт301:00−8ю119428 0.1 100612
04:00−12ссз15935 0.1 100652
07:00−11сз27873 0.0 1009233
10:00−9ссз511785 0.0 1013866
13:00−8ссз597890 0.0 10161003
16:00−8ссз410785 0.0 10171139
19:00−16св22935 0.0 102012
22:00−19ссв11955 0.0 102110